Location: Asheville, NC
(35.6000°N, 82.5500°W)
Time: 01:39:21
(UTC-05:00)

Vanguard 3 - Pass Details

Date: 10 February 2018
Orbit: 508 x 3264 km, 33.3° (Epoch: 21 February)

Event Time Altitude Azimuth Distance (km) Brightness Sun altitude
Rises 20:47:02 0° 265° (W) 2,853 11.0 -32.9°
Reaches altitude 10° 20:48:56 10° 263° (W) 2,099 10.1 -33.3°
Enters shadow 20:51:40 39° 253° (WSW) 1,170 8.2 -33.9°
